History Data
| Date (GMT-7:00) | CPM | ACPM | uSv/h | Latitude | Longitude | Altitude | CO | CO2 | TVOC | HCHO | Air Pressure | Temperature | Humidity | Type |
|---|---|---|---|---|---|---|---|---|---|---|---|---|---|---|
| 2026-02-27 19:45:05 | 23 | 19.50 | 0.115000 | 41.649648 | 41.62752893 | 0 | 0 | 0 | 0 | 0 | 0 | 0 | 0 | STD5.60 |
| 2026-02-27 19:40:03 | 15 | 18.40 | 0.075000 | 41.649648 | 41.62752893 | 0 | 0 | 0 | 0 | 0 | 0 | 0 | 0 | STD5.60 |
| 2026-02-27 19:35:00 | 25 | 18.30 | 0.125000 | 41.649648 | 41.62752893 | 0 | 0 | 0 | 0 | 0 | 0 | 0 | 0 | STD5.60 |
| 2026-02-27 19:29:58 | 22 | 17.50 | 0.110000 | 41.649648 | 41.62752893 | 0 | 0 | 0 | 0 | 0 | 0 | 0 | 0 | STD5.60 |
| 2026-02-27 19:24:57 | 23 | 17.70 | 0.115000 | 41.649648 | 41.62752893 | 0 | 0 | 0 | 0 | 0 | 0 | 0 | 0 | STD5.60 |
| 2026-02-27 19:19:55 | 19 | 17.40 | 0.095000 | 41.649648 | 41.62752893 | 0 | 0 | 0 | 0 | 0 | 0 | 0 | 0 | STD5.60 |
| 2026-02-27 19:14:53 | 13 | 17.20 | 0.065000 | 41.649648 | 41.62752893 | 0 | 0 | 0 | 0 | 0 | 0 | 0 | 0 | STD5.60 |
| 2026-02-27 19:09:49 | 21 | 19.30 | 0.105000 | 41.649648 | 41.62752893 | 0 | 0 | 0 | 0 | 0 | 0 | 0 | 0 | STD5.60 |
| 2026-02-27 19:04:47 | 21 | 20.50 | 0.105000 | 41.649648 | 41.62752893 | 0 | 0 | 0 | 0 | 0 | 0 | 0 | 0 | STD5.60 |
| 2026-02-27 18:59:45 | 22 | 19.10 | 0.110000 | 41.649648 | 41.62752893 | 0 | 0 | 0 | 0 | 0 | 0 | 0 | 0 | STD5.60 |
| 2026-02-27 18:54:42 | 20 | 17.20 | 0.100000 | 41.649648 | 41.62752893 | 0 | 0 | 0 | 0 | 0 | 0 | 0 | 0 | STD5.60 |
| 2026-02-27 18:49:41 | 17 | 17.50 | 0.085000 | 41.649648 | 41.62752893 | 0 | 0 | 0 | 0 | 0 | 0 | 0 | 0 | STD5.60 |
| 2026-02-27 18:44:38 | 23 | 18.60 | 0.115000 | 41.649648 | 41.62752893 | 0 | 0 | 0 | 0 | 0 | 0 | 0 | 0 | STD5.60 |
| 2026-02-27 18:39:37 | 19 | 18.80 | 0.095000 | 41.649648 | 41.62752893 | 0 | 0 | 0 | 0 | 0 | 0 | 0 | 0 | STD5.60 |
| 2026-02-27 18:34:34 | 17 | 20.20 | 0.085000 | 41.649648 | 41.62752893 | 0 | 0 | 0 | 0 | 0 | 0 | 0 | 0 | STD5.60 |
| 2026-02-27 18:29:32 | 20 | 21.90 | 0.100000 | 41.649648 | 41.62752893 | 0 | 0 | 0 | 0 | 0 | 0 | 0 | 0 | STD5.60 |
| 2026-02-27 18:24:31 | 24 | 18.30 | 0.120000 | 41.649648 | 41.62752893 | 0 | 0 | 0 | 0 | 0 | 0 | 0 | 0 | STD5.60 |
| 2026-02-27 18:19:29 | 13 | 16.70 | 0.065000 | 41.649648 | 41.62752893 | 0 | 0 | 0 | 0 | 0 | 0 | 0 | 0 | STD5.60 |
| 2026-02-27 18:14:26 | 20 | 18.40 | 0.100000 | 41.649648 | 41.62752893 | 0 | 0 | 0 | 0 | 0 | 0 | 0 | 0 | STD5.60 |
| 2026-02-27 18:09:23 | 12 | 17.30 | 0.060000 | 41.649648 | 41.62752893 | 0 | 0 | 0 | 0 | 0 | 0 | 0 | 0 | STD5.60 |
| 2026-02-27 18:04:20 | 17 | 16.30 | 0.085000 | 41.649648 | 41.62752893 | 0 | 0 | 0 | 0 | 0 | 0 | 0 | 0 | STD5.60 |
| 2026-02-27 17:59:19 | 14 | 18.60 | 0.070000 | 41.649648 | 41.62752893 | 0 | 0 | 0 | 0 | 0 | 0 | 0 | 0 | STD5.60 |
| 2026-02-27 17:54:17 | 10 | 18.70 | 0.050000 | 41.649648 | 41.62752893 | 0 | 0 | 0 | 0 | 0 | 0 | 0 | 0 | STD5.60 |
| 2026-02-27 17:49:15 | 14 | 16.60 | 0.070000 | 41.649648 | 41.62752893 | 0 | 0 | 0 | 0 | 0 | 0 | 0 | 0 | STD5.60 |
| 2026-02-27 17:44:13 | 21 | 16.40 | 0.105000 | 41.649648 | 41.62752893 | 0 | 0 | 0 | 0 | 0 | 0 | 0 | 0 | STD5.60 |
| 2026-02-27 17:39:11 | 23 | 17.20 | 0.115000 | 41.649648 | 41.62752893 | 0 | 0 | 0 | 0 | 0 | 0 | 0 | 0 | STD5.60 |
| 2026-02-27 17:34:09 | 20 | 17.70 | 0.100000 | 41.649648 | 41.62752893 | 0 | 0 | 0 | 0 | 0 | 0 | 0 | 0 | STD5.60 |
| 2026-02-27 17:29:08 | 24 | 17.10 | 0.120000 | 41.649648 | 41.62752893 | 0 | 0 | 0 | 0 | 0 | 0 | 0 | 0 | STD5.60 |
| 2026-02-27 17:24:06 | 16 | 17.10 | 0.080000 | 41.649648 | 41.62752893 | 0 | 0 | 0 | 0 | 0 | 0 | 0 | 0 | STD5.60 |
| 2026-02-27 17:19:04 | 24 | 16.60 | 0.120000 | 41.649648 | 41.62752893 | 0 | 0 | 0 | 0 | 0 | 0 | 0 | 0 | STD5.60 |
| 2026-02-27 17:14:03 | 15 | 16.60 | 0.075000 | 41.649648 | 41.62752893 | 0 | 0 | 0 | 0 | 0 | 0 | 0 | 0 | STD5.60 |
| 2026-02-27 17:08:57 | 16 | 17.10 | 0.080000 | 41.649648 | 41.62752893 | 0 | 0 | 0 | 0 | 0 | 0 | 0 | 0 | STD5.60 |
| 2026-02-27 17:03:56 | 6 | 16.30 | 0.030000 | 41.649648 | 41.62752893 | 0 | 0 | 0 | 0 | 0 | 0 | 0 | 0 | STD5.60 |
| 2026-02-27 16:58:53 | 18 | 18.30 | 0.090000 | 41.649648 | 41.62752893 | 0 | 0 | 0 | 0 | 0 | 0 | 0 | 0 | STD5.60 |
| 2026-02-27 16:53:51 | 18 | 19.70 | 0.090000 | 41.649648 | 41.62752893 | 0 | 0 | 0 | 0 | 0 | 0 | 0 | 0 | STD5.60 |
| 2026-02-27 16:48:49 | 25 | 19.50 | 0.125000 | 41.649648 | 41.62752893 | 0 | 0 | 0 | 0 | 0 | 0 | 0 | 0 | STD5.60 |
| 2026-02-27 16:43:47 | 21 | 19.10 | 0.105000 | 41.649648 | 41.62752893 | 0 | 0 | 0 | 0 | 0 | 0 | 0 | 0 | STD5.60 |
| 2026-02-27 16:38:45 | 13 | 17.60 | 0.065000 | 41.649648 | 41.62752893 | 0 | 0 | 0 | 0 | 0 | 0 | 0 | 0 | STD5.60 |
| 2026-02-27 16:33:43 | 16 | 17.50 | 0.080000 | 41.649648 | 41.62752893 | 0 | 0 | 0 | 0 | 0 | 0 | 0 | 0 | STD5.60 |
| 2026-02-27 16:28:41 | 16 | 18.50 | 0.080000 | 41.649648 | 41.62752893 | 0 | 0 | 0 | 0 | 0 | 0 | 0 | 0 | STD5.60 |
| 2026-02-27 16:23:39 | 21 | 19.10 | 0.105000 | 41.649648 | 41.62752893 | 0 | 0 | 0 | 0 | 0 | 0 | 0 | 0 | STD5.60 |
| 2026-02-27 16:18:37 | 12 | 20.40 | 0.060000 | 41.649648 | 41.62752893 | 0 | 0 | 0 | 0 | 0 | 0 | 0 | 0 | STD5.60 |
| 2026-02-27 16:13:35 | 21 | 19.70 | 0.105000 | 41.649648 | 41.62752893 | 0 | 0 | 0 | 0 | 0 | 0 | 0 | 0 | STD5.60 |
| 2026-02-27 16:08:31 | 13 | 18.20 | 0.065000 | 41.649648 | 41.62752893 | 0 | 0 | 0 | 0 | 0 | 0 | 0 | 0 | STD5.60 |
| 2026-02-27 16:03:29 | 18 | 18.00 | 0.090000 | 41.649648 | 41.62752893 | 0 | 0 | 0 | 0 | 0 | 0 | 0 | 0 | STD5.60 |
| 2026-02-27 15:58:28 | 20 | 19.20 | 0.100000 | 41.649648 | 41.62752893 | 0 | 0 | 0 | 0 | 0 | 0 | 0 | 0 | STD5.60 |
| 2026-02-27 15:53:26 | 23 | 16.60 | 0.115000 | 41.649648 | 41.62752893 | 0 | 0 | 0 | 0 | 0 | 0 | 0 | 0 | STD5.60 |
| 2026-02-27 15:48:24 | 9 | 15.80 | 0.045000 | 41.649648 | 41.62752893 | 0 | 0 | 0 | 0 | 0 | 0 | 0 | 0 | STD5.60 |
| 2026-02-27 15:43:21 | 23 | 18.20 | 0.115000 | 41.649648 | 41.62752893 | 0 | 0 | 0 | 0 | 0 | 0 | 0 | 0 | STD5.60 |
| 2026-02-27 15:38:19 | 13 | 19.70 | 0.065000 | 41.649648 | 41.62752893 | 0 | 0 | 0 | 0 | 0 | 0 | 0 | 0 | STD5.60 |
| 2026-02-27 15:33:18 | 15 | 20.50 | 0.075000 | 41.649648 | 41.62752893 | 0 | 0 | 0 | 0 | 0 | 0 | 0 | 0 | STD5.60 |
| 2026-02-27 15:28:16 | 16 | 19.70 | 0.080000 | 41.649648 | 41.62752893 | 0 | 0 | 0 | 0 | 0 | 0 | 0 | 0 | STD5.60 |
| 2026-02-27 15:23:15 | 23 | 17.90 | 0.115000 | 41.649648 | 41.62752893 | 0 | 0 | 0 | 0 | 0 | 0 | 0 | 0 | STD5.60 |
| 2026-02-27 15:18:13 | 16 | 16.70 | 0.080000 | 41.649648 | 41.62752893 | 0 | 0 | 0 | 0 | 0 | 0 | 0 | 0 | STD5.60 |
| 2026-02-27 15:13:10 | 18 | 17.30 | 0.090000 | 41.649648 | 41.62752893 | 0 | 0 | 0 | 0 | 0 | 0 | 0 | 0 | STD5.60 |
| 2026-02-27 15:08:06 | 16 | 18.70 | 0.080000 | 41.649648 | 41.62752893 | 0 | 0 | 0 | 0 | 0 | 0 | 0 | 0 | STD5.60 |
| 2026-02-27 15:03:05 | 20 | 19.10 | 0.100000 | 41.649648 | 41.62752893 | 0 | 0 | 0 | 0 | 0 | 0 | 0 | 0 | STD5.60 |
| 2026-02-27 14:58:02 | 14 | 18.70 | 0.070000 | 41.649648 | 41.62752893 | 0 | 0 | 0 | 0 | 0 | 0 | 0 | 0 | STD5.60 |
| 2026-02-27 14:53:00 | 25 | 18.90 | 0.125000 | 41.649648 | 41.62752893 | 0 | 0 | 0 | 0 | 0 | 0 | 0 | 0 | STD5.60 |
| 2026-02-27 14:47:58 | 24 | 16.90 | 0.120000 | 41.649648 | 41.62752893 | 0 | 0 | 0 | 0 | 0 | 0 | 0 | 0 | STD5.60 |
| 2026-02-27 14:42:56 | 11 | 15.20 | 0.055000 | 41.649648 | 41.62752893 | 0 | 0 | 0 | 0 | 0 | 0 | 0 | 0 | STD5.60 |
| 2026-02-27 14:37:54 | 20 | 16.20 | 0.100000 | 41.649648 | 41.62752893 | 0 | 0 | 0 | 0 | 0 | 0 | 0 | 0 | STD5.60 |
| 2026-02-27 14:32:52 | 14 | 18.50 | 0.070000 | 41.649648 | 41.62752893 | 0 | 0 | 0 | 0 | 0 | 0 | 0 | 0 | STD5.60 |
| 2026-02-27 14:27:50 | 16 | 18.60 | 0.080000 | 41.649648 | 41.62752893 | 0 | 0 | 0 | 0 | 0 | 0 | 0 | 0 | STD5.60 |
| 2026-02-27 14:22:48 | 16 | 16.70 | 0.080000 | 41.649648 | 41.62752893 | 0 | 0 | 0 | 0 | 0 | 0 | 0 | 0 | STD5.60 |
| 2026-02-27 14:17:47 | 16 | 15.90 | 0.080000 | 41.649648 | 41.62752893 | 0 | 0 | 0 | 0 | 0 | 0 | 0 | 0 | STD5.60 |
| 2026-02-27 14:12:44 | 21 | 17.00 | 0.105000 | 41.649648 | 41.62752893 | 0 | 0 | 0 | 0 | 0 | 0 | 0 | 0 | STD5.60 |
| 2026-02-27 14:07:40 | 16 | 18.10 | 0.080000 | 41.649648 | 41.62752893 | 0 | 0 | 0 | 0 | 0 | 0 | 0 | 0 | STD5.60 |
| 2026-02-27 14:02:39 | 15 | 18.10 | 0.075000 | 41.649648 | 41.62752893 | 0 | 0 | 0 | 0 | 0 | 0 | 0 | 0 | STD5.60 |
| 2026-02-27 13:57:37 | 16 | 18.20 | 0.080000 | 41.649648 | 41.62752893 | 0 | 0 | 0 | 0 | 0 | 0 | 0 | 0 | STD5.60 |
| 2026-02-27 13:52:34 | 15 | 18.00 | 0.075000 | 41.649648 | 41.62752893 | 0 | 0 | 0 | 0 | 0 | 0 | 0 | 0 | STD5.60 |
| 2026-02-27 13:47:32 | 18 | 17.80 | 0.090000 | 41.649648 | 41.62752893 | 0 | 0 | 0 | 0 | 0 | 0 | 0 | 0 | STD5.60 |
| 2026-02-27 13:42:30 | 12 | 17.30 | 0.060000 | 41.649648 | 41.62752893 | 0 | 0 | 0 | 0 | 0 | 0 | 0 | 0 | STD5.60 |
| 2026-02-27 13:37:28 | 16 | 17.90 | 0.080000 | 41.649648 | 41.62752893 | 0 | 0 | 0 | 0 | 0 | 0 | 0 | 0 | STD5.60 |
| 2026-02-27 13:32:26 | 18 | 17.60 | 0.090000 | 41.649648 | 41.62752893 | 0 | 0 | 0 | 0 | 0 | 0 | 0 | 0 | STD5.60 |
| 2026-02-27 13:27:24 | 24 | 20.40 | 0.120000 | 41.649648 | 41.62752893 | 0 | 0 | 0 | 0 | 0 | 0 | 0 | 0 | STD5.60 |
| 2026-02-27 13:22:22 | 27 | 19.80 | 0.135000 | 41.649648 | 41.62752893 | 0 | 0 | 0 | 0 | 0 | 0 | 0 | 0 | STD5.60 |
| 2026-02-27 13:17:20 | 15 | 17.40 | 0.075000 | 41.649648 | 41.62752893 | 0 | 0 | 0 | 0 | 0 | 0 | 0 | 0 | STD5.60 |
| 2026-02-27 13:12:18 | 18 | 18.30 | 0.090000 | 41.649648 | 41.62752893 | 0 | 0 | 0 | 0 | 0 | 0 | 0 | 0 | STD5.60 |
| 2026-02-27 13:07:15 | 18 | 17.90 | 0.090000 | 41.649648 | 41.62752893 | 0 | 0 | 0 | 0 | 0 | 0 | 0 | 0 | STD5.60 |
| 2026-02-27 13:02:13 | 13 | 17.60 | 0.065000 | 41.649648 | 41.62752893 | 0 | 0 | 0 | 0 | 0 | 0 | 0 | 0 | STD5.60 |
| 2026-02-27 12:57:11 | 20 | 17.60 | 0.100000 | 41.649648 | 41.62752893 | 0 | 0 | 0 | 0 | 0 | 0 | 0 | 0 | STD5.60 |
| 2026-02-27 12:52:09 | 14 | 18.80 | 0.070000 | 41.649648 | 41.62752893 | 0 | 0 | 0 | 0 | 0 | 0 | 0 | 0 | STD5.60 |
| 2026-02-27 12:47:07 | 21 | 19.70 | 0.105000 | 41.649648 | 41.62752893 | 0 | 0 | 0 | 0 | 0 | 0 | 0 | 0 | STD5.60 |
| 2026-02-27 12:42:04 | 25 | 20.70 | 0.125000 | 41.649648 | 41.62752893 | 0 | 0 | 0 | 0 | 0 | 0 | 0 | 0 | STD5.60 |
| 2026-02-27 12:37:03 | 21 | 19.30 | 0.105000 | 41.649648 | 41.62752893 | 0 | 0 | 0 | 0 | 0 | 0 | 0 | 0 | STD5.60 |
| 2026-02-27 12:32:03 | 14 | 18.60 | 0.070000 | 41.649648 | 41.62752893 | 0 | 0 | 0 | 0 | 0 | 0 | 0 | 0 | STD5.60 |
| 2026-02-27 12:26:59 | 18 | 18.20 | 0.090000 | 41.649648 | 41.62752893 | 0 | 0 | 0 | 0 | 0 | 0 | 0 | 0 | STD5.60 |
| 2026-02-27 12:21:57 | 13 | 18.40 | 0.065000 | 41.649648 | 41.62752893 | 0 | 0 | 0 | 0 | 0 | 0 | 0 | 0 | STD5.60 |
| 2026-02-27 12:16:55 | 19 | 17.80 | 0.095000 | 41.649648 | 41.62752893 | 0 | 0 | 0 | 0 | 0 | 0 | 0 | 0 | STD5.60 |
| 2026-02-27 12:11:53 | 13 | 16.00 | 0.065000 | 41.649648 | 41.62752893 | 0 | 0 | 0 | 0 | 0 | 0 | 0 | 0 | STD5.60 |
| 2026-02-27 12:06:48 | 15 | 18.30 | 0.075000 | 41.649648 | 41.62752893 | 0 | 0 | 0 | 0 | 0 | 0 | 0 | 0 | STD5.60 |
| 2026-02-27 12:01:46 | 19 | 19.80 | 0.095000 | 41.649648 | 41.62752893 | 0 | 0 | 0 | 0 | 0 | 0 | 0 | 0 | STD5.60 |
| 2026-02-27 11:56:44 | 16 | 18.70 | 0.080000 | 41.649648 | 41.62752893 | 0 | 0 | 0 | 0 | 0 | 0 | 0 | 0 | STD5.60 |
| 2026-02-27 11:51:42 | 16 | 18.40 | 0.080000 | 41.649648 | 41.62752893 | 0 | 0 | 0 | 0 | 0 | 0 | 0 | 0 | STD5.60 |
| 2026-02-27 11:46:40 | 18 | 19.20 | 0.090000 | 41.649648 | 41.62752893 | 0 | 0 | 0 | 0 | 0 | 0 | 0 | 0 | STD5.60 |
| 2026-02-27 11:41:38 | 20 | 19.40 | 0.100000 | 41.649648 | 41.62752893 | 0 | 0 | 0 | 0 | 0 | 0 | 0 | 0 | STD5.60 |
| 2026-02-27 11:36:36 | 26 | 18.60 | 0.130000 | 41.649648 | 41.62752893 | 0 | 0 | 0 | 0 | 0 | 0 | 0 | 0 | STD5.60 |
| 2026-02-27 11:31:34 | 14 | 17.70 | 0.070000 | 41.649648 | 41.62752893 | 0 | 0 | 0 | 0 | 0 | 0 | 0 | 0 | STD5.60 |
| 2026-02-27 11:26:32 | 23 | 18.70 | 0.115000 | 41.649648 | 41.62752893 | 0 | 0 | 0 | 0 | 0 | 0 | 0 | 0 | STD5.60 |
| 2026-02-27 11:21:30 | 20 | 20.10 | 0.100000 | 41.649648 | 41.62752893 | 0 | 0 | 0 | 0 | 0 | 0 | 0 | 0 | STD5.60 |
| 2026-02-27 11:16:28 | 31 | 16.60 | 0.155000 | 41.649648 | 41.62752893 | 0 | 0 | 0 | 0 | 0 | 0 | 0 | 0 | STD5.60 |
| 2026-02-27 11:11:26 | 8 | 15.40 | 0.040000 | 41.649648 | 41.62752893 | 0 | 0 | 0 | 0 | 0 | 0 | 0 | 0 | STD5.60 |
| 2026-02-27 11:06:21 | 16 | 19.90 | 0.080000 | 41.649648 | 41.62752893 | 0 | 0 | 0 | 0 | 0 | 0 | 0 | 0 | STD5.60 |
| 2026-02-27 11:01:19 | 16 | 20.20 | 0.080000 | 41.649648 | 41.62752893 | 0 | 0 | 0 | 0 | 0 | 0 | 0 | 0 | STD5.60 |
| 2026-02-27 10:56:16 | 22 | 18.10 | 0.110000 | 41.649648 | 41.62752893 | 0 | 0 | 0 | 0 | 0 | 0 | 0 | 0 | STD5.60 |
| 2026-02-27 10:51:14 | 21 | 17.60 | 0.105000 | 41.649648 | 41.62752893 | 0 | 0 | 0 | 0 | 0 | 0 | 0 | 0 | STD5.60 |
| 2026-02-27 10:46:12 | 18 | 19.00 | 0.090000 | 41.649648 | 41.62752893 | 0 | 0 | 0 | 0 | 0 | 0 | 0 | 0 | STD5.60 |
| 2026-02-27 10:41:11 | 21 | 19.00 | 0.105000 | 41.649648 | 41.62752893 | 0 | 0 | 0 | 0 | 0 | 0 | 0 | 0 | STD5.60 |
| 2026-02-27 10:36:08 | 20 | 18.60 | 0.100000 | 41.649648 | 41.62752893 | 0 | 0 | 0 | 0 | 0 | 0 | 0 | 0 | STD5.60 |
| 2026-02-27 10:31:06 | 19 | 18.20 | 0.095000 | 41.649648 | 41.62752893 | 0 | 0 | 0 | 0 | 0 | 0 | 0 | 0 | STD5.60 |
| 2026-02-27 10:26:04 | 15 | 17.70 | 0.075000 | 41.649648 | 41.62752893 | 0 | 0 | 0 | 0 | 0 | 0 | 0 | 0 | STD5.60 |
| 2026-02-27 10:21:02 | 12 | 19.80 | 0.060000 | 41.649648 | 41.62752893 | 0 | 0 | 0 | 0 | 0 | 0 | 0 | 0 | STD5.60 |
| 2026-02-27 10:16:00 | 19 | 19.90 | 0.095000 | 41.649648 | 41.62752893 | 0 | 0 | 0 | 0 | 0 | 0 | 0 | 0 | STD5.60 |
| 2026-02-27 10:10:58 | 15 | 18.10 | 0.075000 | 41.649648 | 41.62752893 | 0 | 0 | 0 | 0 | 0 | 0 | 0 | 0 | STD5.60 |
| 2026-02-27 10:05:54 | 14 | 16.10 | 0.070000 | 41.649648 | 41.62752893 | 0 | 0 | 0 | 0 | 0 | 0 | 0 | 0 | STD5.60 |
| 2026-02-27 10:00:51 | 11 | 16.50 | 0.055000 | 41.649648 | 41.62752893 | 0 | 0 | 0 | 0 | 0 | 0 | 0 | 0 | STD5.60 |
| 2026-02-27 09:55:50 | 15 | 19.90 | 0.075000 | 41.649648 | 41.62752893 | 0 | 0 | 0 | 0 | 0 | 0 | 0 | 0 | STD5.60 |
| 2026-02-27 09:50:48 | 22 | 19.60 | 0.110000 | 41.649648 | 41.62752893 | 0 | 0 | 0 | 0 | 0 | 0 | 0 | 0 | STD5.60 |
| 2026-02-27 09:45:46 | 20 | 16.60 | 0.100000 | 41.649648 | 41.62752893 | 0 | 0 | 0 | 0 | 0 | 0 | 0 | 0 | STD5.60 |
| 2026-02-27 09:40:43 | 21 | 16.10 | 0.105000 | 41.649648 | 41.62752893 | 0 | 0 | 0 | 0 | 0 | 0 | 0 | 0 | STD5.60 |
| 2026-02-27 09:35:42 | 17 | 17.10 | 0.085000 | 41.649648 | 41.62752893 | 0 | 0 | 0 | 0 | 0 | 0 | 0 | 0 | STD5.60 |
| 2026-02-27 09:30:39 | 18 | 19.20 | 0.090000 | 41.649648 | 41.62752893 | 0 | 0 | 0 | 0 | 0 | 0 | 0 | 0 | STD5.60 |
| 2026-02-27 09:25:37 | 18 | 19.50 | 0.090000 | 41.649648 | 41.62752893 | 0 | 0 | 0 | 0 | 0 | 0 | 0 | 0 | STD5.60 |
| 2026-02-27 09:20:35 | 20 | 17.70 | 0.100000 | 41.649648 | 41.62752893 | 0 | 0 | 0 | 0 | 0 | 0 | 0 | 0 | STD5.60 |
| 2026-02-27 09:15:33 | 11 | 8.70 | 0.055000 | 41.649648 | 41.62752893 | 0 | 0 | 0 | 0 | 0 | 0 | 0 | 0 | STD5.60 |
| 2026-02-16 08:32:46 | 13 | 17.00 | 0.065000 | 41.649648 | 41.62752893 | 0 | 0 | 0 | 0 | 0 | 0 | 0 | 0 | STD5.60 |
| 2026-02-16 08:27:43 | 19 | 17.80 | 0.095000 | 41.649648 | 41.62752893 | 0 | 0 | 0 | 0 | 0 | 0 | 0 | 0 | STD5.60 |
| 2026-02-16 08:22:41 | 22 | 18.60 | 0.110000 | 41.649648 | 41.62752893 | 0 | 0 | 0 | 0 | 0 | 0 | 0 | 0 | STD5.60 |
| 2026-02-16 08:17:40 | 19 | 18.10 | 0.095000 | 41.649648 | 41.62752893 | 0 | 0 | 0 | 0 | 0 | 0 | 0 | 0 | STD5.60 |
| 2026-02-16 08:12:37 | 16 | 19.90 | 0.080000 | 41.649648 | 41.62752893 | 0 | 0 | 0 | 0 | 0 | 0 | 0 | 0 | STD5.60 |
| 2026-02-16 08:07:37 | 17 | 22.20 | 0.085000 | 41.649648 | 41.62752893 | 0 | 0 | 0 | 0 | 0 | 0 | 0 | 0 | STD5.60 |
| 2026-02-16 08:02:34 | 23 | 20.90 | 0.115000 | 41.649648 | 41.62752893 | 0 | 0 | 0 | 0 | 0 | 0 | 0 | 0 | STD5.60 |
| 2026-02-16 07:57:29 | 10 | 17.80 | 0.050000 | 41.649648 | 41.62752893 | 0 | 0 | 0 | 0 | 0 | 0 | 0 | 0 | STD5.60 |
| 2026-02-16 07:52:27 | 24 | 17.90 | 0.120000 | 41.649648 | 41.62752893 | 0 | 0 | 0 | 0 | 0 | 0 | 0 | 0 | STD5.60 |
| 2026-02-16 07:47:26 | 21 | 18.70 | 0.105000 | 41.649648 | 41.62752893 | 0 | 0 | 0 | 0 | 0 | 0 | 0 | 0 | STD5.60 |
| 2026-02-16 07:42:23 | 15 | 20.30 | 0.075000 | 41.649648 | 41.62752893 | 0 | 0 | 0 | 0 | 0 | 0 | 0 | 0 | STD5.60 |
| 2026-02-16 07:37:21 | 25 | 19.00 | 0.125000 | 41.649648 | 41.62752893 | 0 | 0 | 0 | 0 | 0 | 0 | 0 | 0 | STD5.60 |
| 2026-02-16 07:32:20 | 22 | 18.60 | 0.110000 | 41.649648 | 41.62752893 | 0 | 0 | 0 | 0 | 0 | 0 | 0 | 0 | STD5.60 |
| 2026-02-16 07:27:17 | 18 | 18.20 | 0.090000 | 41.649648 | 41.62752893 | 0 | 0 | 0 | 0 | 0 | 0 | 0 | 0 | STD5.60 |
| 2026-02-16 07:22:16 | 11 | 17.70 | 0.055000 | 41.649648 | 41.62752893 | 0 | 0 | 0 | 0 | 0 | 0 | 0 | 0 | STD5.60 |
| 2026-02-16 07:17:14 | 18 | 19.00 | 0.090000 | 41.649648 | 41.62752893 | 0 | 0 | 0 | 0 | 0 | 0 | 0 | 0 | STD5.60 |
| 2026-02-16 07:12:12 | 20 | 19.00 | 0.100000 | 41.649648 | 41.62752893 | 0 | 0 | 0 | 0 | 0 | 0 | 0 | 0 | STD5.60 |
| 2026-02-16 07:07:10 | 24 | 19.30 | 0.120000 | 41.649648 | 41.62752893 | 0 | 0 | 0 | 0 | 0 | 0 | 0 | 0 | STD5.60 |
| 2026-02-16 07:02:08 | 16 | 19.40 | 0.080000 | 41.649648 | 41.62752893 | 0 | 0 | 0 | 0 | 0 | 0 | 0 | 0 | STD5.60 |
| 2026-02-16 06:57:04 | 21 | 16.60 | 0.105000 | 41.649648 | 41.62752893 | 0 | 0 | 0 | 0 | 0 | 0 | 0 | 0 | STD5.60 |
| 2026-02-16 06:52:02 | 13 | 15.80 | 0.065000 | 41.649648 | 41.62752893 | 0 | 0 | 0 | 0 | 0 | 0 | 0 | 0 | STD5.60 |
| 2026-02-16 06:47:00 | 18 | 18.30 | 0.090000 | 41.649648 | 41.62752893 | 0 | 0 | 0 | 0 | 0 | 0 | 0 | 0 | STD5.60 |
| 2026-02-16 06:41:58 | 21 | 18.40 | 0.105000 | 41.649648 | 41.62752893 | 0 | 0 | 0 | 0 | 0 | 0 | 0 | 0 | STD5.60 |
| 2026-02-16 06:36:56 | 17 | 17.30 | 0.085000 | 41.649648 | 41.62752893 | 0 | 0 | 0 | 0 | 0 | 0 | 0 | 0 | STD5.60 |
| 2026-02-16 06:31:55 | 20 | 16.80 | 0.100000 | 41.649648 | 41.62752893 | 0 | 0 | 0 | 0 | 0 | 0 | 0 | 0 | STD5.60 |
| 2026-02-16 06:26:52 | 18 | 15.50 | 0.090000 | 41.649648 | 41.62752893 | 0 | 0 | 0 | 0 | 0 | 0 | 0 | 0 | STD5.60 |
| 2026-02-16 06:21:51 | 19 | 16.50 | 0.095000 | 41.649648 | 41.62752893 | 0 | 0 | 0 | 0 | 0 | 0 | 0 | 0 | STD5.60 |
| 2026-02-16 06:16:49 | 19 | 17.90 | 0.095000 | 41.649648 | 41.62752893 | 0 | 0 | 0 | 0 | 0 | 0 | 0 | 0 | STD5.60 |
| 2026-02-16 06:11:46 | 11 | 17.90 | 0.055000 | 41.649648 | 41.62752893 | 0 | 0 | 0 | 0 | 0 | 0 | 0 | 0 | STD5.60 |
| 2026-02-16 06:06:45 | 19 | 17.70 | 0.095000 | 41.649648 | 41.62752893 | 0 | 0 | 0 | 0 | 0 | 0 | 0 | 0 | STD5.60 |
| 2026-02-16 06:01:40 | 8 | 17.60 | 0.040000 | 41.649648 | 41.62752893 | 0 | 0 | 0 | 0 | 0 | 0 | 0 | 0 | STD5.60 |
| 2026-02-16 05:56:38 | 16 | 17.80 | 0.080000 | 41.649648 | 41.62752893 | 0 | 0 | 0 | 0 | 0 | 0 | 0 | 0 | STD5.60 |
| 2026-02-16 05:51:36 | 14 | 18.20 | 0.070000 | 41.649648 | 41.62752893 | 0 | 0 | 0 | 0 | 0 | 0 | 0 | 0 | STD5.60 |
| 2026-02-16 05:46:34 | 19 | 18.20 | 0.095000 | 41.649648 | 41.62752893 | 0 | 0 | 0 | 0 | 0 | 0 | 0 | 0 | STD5.60 |
| 2026-02-16 05:41:31 | 16 | 16.70 | 0.080000 | 41.649648 | 41.62752893 | 0 | 0 | 0 | 0 | 0 | 0 | 0 | 0 | STD5.60 |
| 2026-02-16 05:36:30 | 24 | 16.30 | 0.120000 | 41.649648 | 41.62752893 | 0 | 0 | 0 | 0 | 0 | 0 | 0 | 0 | STD5.60 |
| 2026-02-16 05:31:28 | 20 | 18.00 | 0.100000 | 41.649648 | 41.62752893 | 0 | 0 | 0 | 0 | 0 | 0 | 0 | 0 | STD5.60 |
| 2026-02-16 05:26:26 | 15 | 19.70 | 0.075000 | 41.649648 | 41.62752893 | 0 | 0 | 0 | 0 | 0 | 0 | 0 | 0 | STD5.60 |
| 2026-02-16 05:21:24 | 15 | 17.80 | 0.075000 | 41.649648 | 41.62752893 | 0 | 0 | 0 | 0 | 0 | 0 | 0 | 0 | STD5.60 |
| 2026-02-16 05:16:23 | 18 | 17.50 | 0.090000 | 41.649648 | 41.62752893 | 0 | 0 | 0 | 0 | 0 | 0 | 0 | 0 | STD5.60 |
| 2026-02-16 05:11:20 | 21 | 16.40 | 0.105000 | 41.649648 | 41.62752893 | 0 | 0 | 0 | 0 | 0 | 0 | 0 | 0 | STD5.60 |
| 2026-02-16 05:06:18 | 16 | 17.00 | 0.080000 | 41.649648 | 41.62752893 | 0 | 0 | 0 | 0 | 0 | 0 | 0 | 0 | STD5.60 |
| 2026-02-16 05:01:14 | 12 | 17.40 | 0.060000 | 41.649648 | 41.62752893 | 0 | 0 | 0 | 0 | 0 | 0 | 0 | 0 | STD5.60 |
| 2026-02-16 04:56:13 | 18 | 17.10 | 0.090000 | 41.649648 | 41.62752893 | 0 | 0 | 0 | 0 | 0 | 0 | 0 | 0 | STD5.60 |
| 2026-02-16 04:51:10 | 18 | 19.20 | 0.090000 | 41.649648 | 41.62752893 | 0 | 0 | 0 | 0 | 0 | 0 | 0 | 0 | STD5.60 |
| 2026-02-16 04:46:09 | 13 | 19.60 | 0.065000 | 41.649648 | 41.62752893 | 0 | 0 | 0 | 0 | 0 | 0 | 0 | 0 | STD5.60 |
| 2026-02-16 04:41:06 | 20 | 18.70 | 0.100000 | 41.649648 | 41.62752893 | 0 | 0 | 0 | 0 | 0 | 0 | 0 | 0 | STD5.60 |
| 2026-02-16 04:36:04 | 19 | 16.90 | 0.095000 | 41.649648 | 41.62752893 | 0 | 0 | 0 | 0 | 0 | 0 | 0 | 0 | STD5.60 |
| 2026-02-16 04:31:03 | 12 | 17.70 | 0.060000 | 41.649648 | 41.62752893 | 0 | 0 | 0 | 0 | 0 | 0 | 0 | 0 | STD5.60 |
| 2026-02-16 04:26:01 | 15 | 18.30 | 0.075000 | 41.649648 | 41.62752893 | 0 | 0 | 0 | 0 | 0 | 0 | 0 | 0 | STD5.60 |
| 2026-02-16 04:20:59 | 17 | 17.10 | 0.085000 | 41.649648 | 41.62752893 | 0 | 0 | 0 | 0 | 0 | 0 | 0 | 0 | STD5.60 |
| 2026-02-16 04:15:57 | 15 | 18.10 | 0.075000 | 41.649648 | 41.62752893 | 0 | 0 | 0 | 0 | 0 | 0 | 0 | 0 | STD5.60 |
| 2026-02-16 04:10:55 | 23 | 18.10 | 0.115000 | 41.649648 | 41.62752893 | 0 | 0 | 0 | 0 | 0 | 0 | 0 | 0 | STD5.60 |
| 2026-02-16 04:05:53 | 20 | 17.90 | 0.100000 | 41.649648 | 41.62752893 | 0 | 0 | 0 | 0 | 0 | 0 | 0 | 0 | STD5.60 |
| 2026-02-16 04:00:50 | 15 | 19.50 | 0.075000 | 41.649648 | 41.62752893 | 0 | 0 | 0 | 0 | 0 | 0 | 0 | 0 | STD5.60 |
| 2026-02-16 03:55:48 | 23 | 22.30 | 0.115000 | 41.649648 | 41.62752893 | 0 | 0 | 0 | 0 | 0 | 0 | 0 | 0 | STD5.60 |
| 2026-02-16 03:50:46 | 24 | 20.50 | 0.120000 | 41.649648 | 41.62752893 | 0 | 0 | 0 | 0 | 0 | 0 | 0 | 0 | STD5.60 |
| 2026-02-16 03:45:44 | 15 | 17.00 | 0.075000 | 41.649648 | 41.62752893 | 0 | 0 | 0 | 0 | 0 | 0 | 0 | 0 | STD5.60 |
| 2026-02-16 03:40:41 | 14 | 17.90 | 0.070000 | 41.649648 | 41.62752893 | 0 | 0 | 0 | 0 | 0 | 0 | 0 | 0 | STD5.60 |
| 2026-02-16 03:35:39 | 27 | 18.20 | 0.135000 | 41.649648 | 41.62752893 | 0 | 0 | 0 | 0 | 0 | 0 | 0 | 0 | STD5.60 |
| 2026-02-16 03:30:38 | 17 | 16.50 | 0.085000 | 41.649648 | 41.62752893 | 0 | 0 | 0 | 0 | 0 | 0 | 0 | 0 | STD5.60 |
| 2026-02-16 03:25:36 | 14 | 16.00 | 0.070000 | 41.649648 | 41.62752893 | 0 | 0 | 0 | 0 | 0 | 0 | 0 | 0 | STD5.60 |
| 2026-02-16 03:20:34 | 14 | 15.90 | 0.070000 | 41.649648 | 41.62752893 | 0 | 0 | 0 | 0 | 0 | 0 | 0 | 0 | STD5.60 |
| 2026-02-16 03:15:32 | 15 | 14.90 | 0.075000 | 41.649648 | 41.62752893 | 0 | 0 | 0 | 0 | 0 | 0 | 0 | 0 | STD5.60 |
| 2026-02-16 03:10:30 | 10 | 16.00 | 0.050000 | 41.649648 | 41.62752893 | 0 | 0 | 0 | 0 | 0 | 0 | 0 | 0 | STD5.60 |
| 2026-02-16 03:05:28 | 23 | 18.90 | 0.115000 | 41.649648 | 41.62752893 | 0 | 0 | 0 | 0 | 0 | 0 | 0 | 0 | STD5.60 |
| 2026-02-16 03:00:25 | 24 | 19.00 | 0.120000 | 41.649648 | 41.62752893 | 0 | 0 | 0 | 0 | 0 | 0 | 0 | 0 | STD5.60 |
| 2026-02-16 02:55:23 | 18 | 17.00 | 0.090000 | 41.649648 | 41.62752893 | 0 | 0 | 0 | 0 | 0 | 0 | 0 | 0 | STD5.60 |
| 2026-02-16 02:50:21 | 19 | 17.80 | 0.095000 | 41.649648 | 41.62752893 | 0 | 0 | 0 | 0 | 0 | 0 | 0 | 0 | STD5.60 |
| 2026-02-16 02:45:19 | 14 | 16.90 | 0.070000 | 41.649648 | 41.62752893 | 0 | 0 | 0 | 0 | 0 | 0 | 0 | 0 | STD5.60 |
| 2026-02-16 02:40:17 | 12 | 15.70 | 0.060000 | 41.649648 | 41.62752893 | 0 | 0 | 0 | 0 | 0 | 0 | 0 | 0 | STD5.60 |
| 2026-02-16 02:35:15 | 14 | 15.90 | 0.070000 | 41.649648 | 41.62752893 | 0 | 0 | 0 | 0 | 0 | 0 | 0 | 0 | STD5.60 |
| 2026-02-16 02:30:13 | 11 | 17.00 | 0.055000 | 41.649648 | 41.62752893 | 0 | 0 | 0 | 0 | 0 | 0 | 0 | 0 | STD5.60 |
| 2026-02-16 02:25:12 | 19 | 19.00 | 0.095000 | 41.649648 | 41.62752893 | 0 | 0 | 0 | 0 | 0 | 0 | 0 | 0 | STD5.60 |
| 2026-02-16 02:20:09 | 10 | 20.30 | 0.050000 | 41.649648 | 41.62752893 | 0 | 0 | 0 | 0 | 0 | 0 | 0 | 0 | STD5.60 |
| 2026-02-16 02:15:07 | 19 | 17.90 | 0.095000 | 41.649648 | 41.62752893 | 0 | 0 | 0 | 0 | 0 | 0 | 0 | 0 | STD5.60 |
| 2026-02-16 02:10:06 | 12 | 15.60 | 0.060000 | 41.649648 | 41.62752893 | 0 | 0 | 0 | 0 | 0 | 0 | 0 | 0 | STD5.60 |
| 2026-02-16 02:05:04 | 19 | 17.30 | 0.095000 | 41.649648 | 41.62752893 | 0 | 0 | 0 | 0 | 0 | 0 | 0 | 0 | STD5.60 |
| 2026-02-16 02:00:00 | 16 | 18.60 | 0.080000 | 41.649648 | 41.62752893 | 0 | 0 | 0 | 0 | 0 | 0 | 0 | 0 | STD5.60 |
| 2026-02-16 01:54:57 | 22 | 18.30 | 0.110000 | 41.649648 | 41.62752893 | 0 | 0 | 0 | 0 | 0 | 0 | 0 | 0 | STD5.60 |
| 2026-02-16 01:49:55 | 14 | 17.40 | 0.070000 | 41.649648 | 41.62752893 | 0 | 0 | 0 | 0 | 0 | 0 | 0 | 0 | STD5.60 |
| 2026-02-16 01:44:53 | 18 | 17.70 | 0.090000 | 41.649648 | 41.62752893 | 0 | 0 | 0 | 0 | 0 | 0 | 0 | 0 | STD5.60 |
| 2026-02-16 01:39:51 | 18 | 17.80 | 0.090000 | 41.649648 | 41.62752893 | 0 | 0 | 0 | 0 | 0 | 0 | 0 | 0 | STD5.60 |
| 2026-02-16 01:34:50 | 21 | 17.10 | 0.105000 | 41.649648 | 41.62752893 | 0 | 0 | 0 | 0 | 0 | 0 | 0 | 0 | STD5.60 |
| 2026-02-16 01:29:48 | 23 | 18.20 | 0.115000 | 41.649648 | 41.62752893 | 0 | 0 | 0 | 0 | 0 | 0 | 0 | 0 | STD5.60 |
| 2026-02-16 01:24:46 | 21 | 20.30 | 0.105000 | 41.649648 | 41.62752893 | 0 | 0 | 0 | 0 | 0 | 0 | 0 | 0 | STD5.60 |
| 2026-02-16 01:19:44 | 18 | 18.20 | 0.090000 | 41.649648 | 41.62752893 | 0 | 0 | 0 | 0 | 0 | 0 | 0 | 0 | STD5.60 |
| 2026-02-16 01:14:42 | 16 | 15.60 | 0.080000 | 41.649648 | 41.62752893 | 0 | 0 | 0 | 0 | 0 | 0 | 0 | 0 | STD5.60 |
| 2026-02-16 01:09:40 | 16 | 17.00 | 0.080000 | 41.649648 | 41.62752893 | 0 | 0 | 0 | 0 | 0 | 0 | 0 | 0 | STD5.60 |
| 2026-02-16 01:04:38 | 21 | 18.60 | 0.105000 | 41.649648 | 41.62752893 | 0 | 0 | 0 | 0 | 0 | 0 | 0 | 0 | STD5.60 |
| 2026-02-16 00:59:34 | 22 | 18.20 | 0.110000 | 41.649648 | 41.62752893 | 0 | 0 | 0 | 0 | 0 | 0 | 0 | 0 | STD5.60 |
| 2026-02-16 00:54:32 | 22 | 18.20 | 0.110000 | 41.649648 | 41.62752893 | 0 | 0 | 0 | 0 | 0 | 0 | 0 | 0 | STD5.60 |
| 2026-02-16 00:49:30 | 14 | 18.30 | 0.070000 | 41.649648 | 41.62752893 | 0 | 0 | 0 | 0 | 0 | 0 | 0 | 0 | STD5.60 |
| 2026-02-16 00:44:28 | 15 | 19.10 | 0.075000 | 41.649648 | 41.62752893 | 0 | 0 | 0 | 0 | 0 | 0 | 0 | 0 | STD5.60 |
| 2026-02-16 00:39:26 | 18 | 18.50 | 0.090000 | 41.649648 | 41.62752893 | 0 | 0 | 0 | 0 | 0 | 0 | 0 | 0 | STD5.60 |
| 2026-02-16 00:34:24 | 18 | 17.00 | 0.090000 | 41.649648 | 41.62752893 | 0 | 0 | 0 | 0 | 0 | 0 | 0 | 0 | STD5.60 |
| 2026-02-16 00:29:22 | 17 | 18.40 | 0.085000 | 41.649648 | 41.62752893 | 0 | 0 | 0 | 0 | 0 | 0 | 0 | 0 | STD5.60 |
| 2026-02-16 00:24:21 | 20 | 18.20 | 0.100000 | 41.649648 | 41.62752893 | 0 | 0 | 0 | 0 | 0 | 0 | 0 | 0 | STD5.60 |
| 2026-02-16 00:19:18 | 11 | 18.20 | 0.055000 | 41.649648 | 41.62752893 | 0 | 0 | 0 | 0 | 0 | 0 | 0 | 0 | STD5.60 |
| 2026-02-16 00:14:17 | 8 | 20.00 | 0.040000 | 41.649648 | 41.62752893 | 0 | 0 | 0 | 0 | 0 | 0 | 0 | 0 | STD5.60 |
| 2026-02-16 00:09:15 | 12 | 18.90 | 0.060000 | 41.649648 | 41.62752893 | 0 | 0 | 0 | 0 | 0 | 0 | 0 | 0 | STD5.60 |
| 2026-02-16 00:04:13 | 20 | 19.00 | 0.100000 | 41.649648 | 41.62752893 | 0 | 0 | 0 | 0 | 0 | 0 | 0 | 0 | STD5.60 |
| 2026-02-15 23:59:09 | 24 | 18.60 | 0.120000 | 41.649648 | 41.62752893 | 0 | 0 | 0 | 0 | 0 | 0 | 0 | 0 | STD5.60 |
| 2026-02-15 23:54:07 | 11 | 18.60 | 0.055000 | 41.649648 | 41.62752893 | 0 | 0 | 0 | 0 | 0 | 0 | 0 | 0 | STD5.60 |
| 2026-02-15 23:49:05 | 25 | 22.30 | 0.125000 | 41.649648 | 41.62752893 | 0 | 0 | 0 | 0 | 0 | 0 | 0 | 0 | STD5.60 |
| 2026-02-15 23:44:03 | 23 | 21.80 | 0.115000 | 41.649648 | 41.62752893 | 0 | 0 | 0 | 0 | 0 | 0 | 0 | 0 | STD5.60 |
| 2026-02-15 23:39:01 | 16 | 18.70 | 0.080000 | 41.649648 | 41.62752893 | 0 | 0 | 0 | 0 | 0 | 0 | 0 | 0 | STD5.60 |
| 2026-02-15 23:33:59 | 19 | 16.90 | 0.095000 | 41.649648 | 41.62752893 | 0 | 0 | 0 | 0 | 0 | 0 | 0 | 0 | STD5.60 |
| 2026-02-15 23:28:57 | 21 | 17.40 | 0.105000 | 41.649648 | 41.62752893 | 0 | 0 | 0 | 0 | 0 | 0 | 0 | 0 | STD5.60 |
| 2026-02-15 23:23:55 | 20 | 18.20 | 0.100000 | 41.649648 | 41.62752893 | 0 | 0 | 0 | 0 | 0 | 0 | 0 | 0 | STD5.60 |
| 2026-02-15 23:18:53 | 28 | 16.70 | 0.140000 | 41.649648 | 41.62752893 | 0 | 0 | 0 | 0 | 0 | 0 | 0 | 0 | STD5.60 |
| 2026-02-15 23:13:51 | 19 | 14.70 | 0.095000 | 41.649648 | 41.62752893 | 0 | 0 | 0 | 0 | 0 | 0 | 0 | 0 | STD5.60 |
| 2026-02-15 23:08:49 | 14 | 15.70 | 0.070000 | 41.649648 | 41.62752893 | 0 | 0 | 0 | 0 | 0 | 0 | 0 | 0 | STD5.60 |
| 2026-02-15 23:03:47 | 21 | 17.60 | 0.105000 | 41.649648 | 41.62752893 | 0 | 0 | 0 | 0 | 0 | 0 | 0 | 0 | STD5.60 |
| 2026-02-15 22:58:42 | 17 | 15.30 | 0.085000 | 41.649648 | 41.62752893 | 0 | 0 | 0 | 0 | 0 | 0 | 0 | 0 | STD5.60 |
| 2026-02-15 22:53:40 | 14 | 15.30 | 0.070000 | 41.649648 | 41.62752893 | 0 | 0 | 0 | 0 | 0 | 0 | 0 | 0 | STD5.60 |
| 2026-02-15 22:48:38 | 20 | 17.70 | 0.100000 | 41.649648 | 41.62752893 | 0 | 0 | 0 | 0 | 0 | 0 | 0 | 0 | STD5.60 |
| 2026-02-15 22:43:36 | 18 | 19.00 | 0.090000 | 41.649648 | 41.62752893 | 0 | 0 | 0 | 0 | 0 | 0 | 0 | 0 | STD5.60 |
| 2026-02-15 22:38:35 | 22 | 18.10 | 0.110000 | 41.649648 | 41.62752893 | 0 | 0 | 0 | 0 | 0 | 0 | 0 | 0 | STD5.60 |
| 2026-02-15 22:33:33 | 16 | 16.80 | 0.080000 | 41.649648 | 41.62752893 | 0 | 0 | 0 | 0 | 0 | 0 | 0 | 0 | STD5.60 |
| 2026-02-15 22:28:30 | 15 | 18.50 | 0.075000 | 41.649648 | 41.62752893 | 0 | 0 | 0 | 0 | 0 | 0 | 0 | 0 | STD5.60 |
| 2026-02-15 22:23:28 | 25 | 18.90 | 0.125000 | 41.649648 | 41.62752893 | 0 | 0 | 0 | 0 | 0 | 0 | 0 | 0 | STD5.60 |
| 2026-02-15 22:18:26 | 21 | 17.90 | 0.105000 | 41.649648 | 41.62752893 | 0 | 0 | 0 | 0 | 0 | 0 | 0 | 0 | STD5.60 |
| 2026-02-15 22:13:24 | 15 | 16.90 | 0.075000 | 41.649648 | 41.62752893 | 0 | 0 | 0 | 0 | 0 | 0 | 0 | 0 | STD5.60 |
| 2026-02-15 22:08:23 | 15 | 17.70 | 0.075000 | 41.649648 | 41.62752893 | 0 | 0 | 0 | 0 | 0 | 0 | 0 | 0 | STD5.60 |
| 2026-02-15 22:03:20 | 25 | 19.40 | 0.125000 | 41.649648 | 41.62752893 | 0 | 0 | 0 | 0 | 0 | 0 | 0 | 0 | STD5.60 |
| 2026-02-15 21:58:17 | 25 | 20.30 | 0.125000 | 41.649648 | 41.62752893 | 0 | 0 | 0 | 0 | 0 | 0 | 0 | 0 | STD5.60 |
| 2026-02-15 21:53:14 | 19 | 21.40 | 0.095000 | 41.649648 | 41.62752893 | 0 | 0 | 0 | 0 | 0 | 0 | 0 | 0 | STD5.60 |
| 2026-02-15 21:48:13 | 28 | 20.90 | 0.140000 | 41.649648 | 41.62752893 | 0 | 0 | 0 | 0 | 0 | 0 | 0 | 0 | STD5.60 |
| 2026-02-15 21:43:11 | 15 | 17.40 | 0.075000 | 41.649648 | 41.62752893 | 0 | 0 | 0 | 0 | 0 | 0 | 0 | 0 | STD5.60 |
| 2026-02-15 21:38:09 | 17 | 18.20 | 0.085000 | 41.649648 | 41.62752893 | 0 | 0 | 0 | 0 | 0 | 0 | 0 | 0 | STD5.60 |
| 2026-02-15 21:33:06 | 14 | 19.00 | 0.070000 | 41.649648 | 41.62752893 | 0 | 0 | 0 | 0 | 0 | 0 | 0 | 0 | STD5.60 |
| 2026-02-15 21:28:05 | 18 | 17.50 | 0.090000 | 41.649648 | 41.62752893 | 0 | 0 | 0 | 0 | 0 | 0 | 0 | 0 | STD5.60 |
| 2026-02-15 21:23:03 | 21 | 17.40 | 0.105000 | 41.649648 | 41.62752893 | 0 | 0 | 0 | 0 | 0 | 0 | 0 | 0 | STD5.60 |
| 2026-02-15 21:18:01 | 19 | 15.80 | 0.095000 | 41.649648 | 41.62752893 | 0 | 0 | 0 | 0 | 0 | 0 | 0 | 0 | STD5.60 |
| 2026-02-15 21:12:59 | 16 | 16.50 | 0.080000 | 41.649648 | 41.62752893 | 0 | 0 | 0 | 0 | 0 | 0 | 0 | 0 | STD5.60 |
| 2026-02-15 21:07:57 | 13 | 19.00 | 0.065000 | 41.649648 | 41.62752893 | 0 | 0 | 0 | 0 | 0 | 0 | 0 | 0 | STD5.60 |
| 2026-02-15 21:02:55 | 22 | 18.50 | 0.110000 | 41.649648 | 41.62752893 | 0 | 0 | 0 | 0 | 0 | 0 | 0 | 0 | STD5.60 |
| 2026-02-15 20:57:50 | 15 | 17.50 | 0.075000 | 41.649648 | 41.62752893 | 0 | 0 | 0 | 0 | 0 | 0 | 0 | 0 | STD5.60 |
| 2026-02-15 20:52:48 | 22 | 18.00 | 0.110000 | 41.649648 | 41.62752893 | 0 | 0 | 0 | 0 | 0 | 0 | 0 | 0 | STD5.60 |
| 2026-02-15 20:47:46 | 12 | 16.10 | 0.060000 | 41.649648 | 41.62752893 | 0 | 0 | 0 | 0 | 0 | 0 | 0 | 0 | STD5.60 |
| 2026-02-15 20:42:45 | 12 | 16.30 | 0.060000 | 41.649648 | 41.62752893 | 0 | 0 | 0 | 0 | 0 | 0 | 0 | 0 | STD5.60 |
| 2026-02-15 20:37:42 | 19 | 17.00 | 0.095000 | 41.649648 | 41.62752893 | 0 | 0 | 0 | 0 | 0 | 0 | 0 | 0 | STD5.60 |
| 2026-02-15 20:32:41 | 21 | 16.40 | 0.105000 | 41.649648 | 41.62752893 | 0 | 0 | 0 | 0 | 0 | 0 | 0 | 0 | STD5.60 |
| 2026-02-15 20:27:39 | 15 | 16.50 | 0.075000 | 41.649648 | 41.62752893 | 0 | 0 | 0 | 0 | 0 | 0 | 0 | 0 | STD5.60 |
| 2026-02-15 20:22:37 | 15 | 17.20 | 0.075000 | 41.649648 | 41.62752893 | 0 | 0 | 0 | 0 | 0 | 0 | 0 | 0 | STD5.60 |
| 2026-02-15 20:17:34 | 17 | 19.80 | 0.085000 | 41.649648 | 41.62752893 | 0 | 0 | 0 | 0 | 0 | 0 | 0 | 0 | STD5.60 |
| 2026-02-15 20:12:33 | 19 | 19.60 | 0.095000 | 41.649648 | 41.62752893 | 0 | 0 | 0 | 0 | 0 | 0 | 0 | 0 | STD5.60 |
| 2026-02-15 20:07:31 | 27 | 19.20 | 0.135000 | 41.649648 | 41.62752893 | 0 | 0 | 0 | 0 | 0 | 0 | 0 | 0 | STD5.60 |
| 2026-02-15 20:02:29 | 18 | 17.50 | 0.090000 | 41.649648 | 41.62752893 | 0 | 0 | 0 | 0 | 0 | 0 | 0 | 0 | STD5.60 |
| 2026-02-15 19:57:25 | 22 | 16.50 | 0.110000 | 41.649648 | 41.62752893 | 0 | 0 | 0 | 0 | 0 | 0 | 0 | 0 | STD5.60 |
| 2026-02-15 19:52:23 | 16 | 16.10 | 0.080000 | 41.649648 | 41.62752893 | 0 | 0 | 0 | 0 | 0 | 0 | 0 | 0 | STD5.60 |
| 2026-02-15 19:47:21 | 15 | 16.70 | 0.075000 | 41.649648 | 41.62752893 | 0 | 0 | 0 | 0 | 0 | 0 | 0 | 0 | STD5.60 |
| 2026-02-15 19:42:19 | 13 | 20.00 | 0.065000 | 41.649648 | 41.62752893 | 0 | 0 | 0 | 0 | 0 | 0 | 0 | 0 | STD5.60 |
| 2026-02-15 19:37:17 | 36 | 20.50 | 0.180000 | 41.649648 | 41.62752893 | 0 | 0 | 0 | 0 | 0 | 0 | 0 | 0 | STD5.60 |
| 2026-02-15 19:32:15 | 21 | 17.80 | 0.105000 | 41.649648 | 41.62752893 | 0 | 0 | 0 | 0 | 0 | 0 | 0 | 0 | STD5.60 |
| 2026-02-15 19:27:13 | 21 | 16.30 | 0.105000 | 41.649648 | 41.62752893 | 0 | 0 | 0 | 0 | 0 | 0 | 0 | 0 | STD5.60 |
| 2026-02-15 19:22:12 | 10 | 17.00 | 0.050000 | 41.649648 | 41.62752893 | 0 | 0 | 0 | 0 | 0 | 0 | 0 | 0 | STD5.60 |
| 2026-02-15 19:17:10 | 13 | 16.80 | 0.065000 | 41.649648 | 41.62752893 | 0 | 0 | 0 | 0 | 0 | 0 | 0 | 0 | STD5.60 |
| 2026-02-15 19:12:07 | 12 | 15.80 | 0.060000 | 41.649648 | 41.62752893 | 0 | 0 | 0 | 0 | 0 | 0 | 0 | 0 | STD5.60 |
| 2026-02-15 19:07:06 | 17 | 17.30 | 0.085000 | 41.649648 | 41.62752893 | 0 | 0 | 0 | 0 | 0 | 0 | 0 | 0 | STD5.60 |
| 2026-02-15 19:02:03 | 20 | 17.80 | 0.100000 | 41.649648 | 41.62752893 | 0 | 0 | 0 | 0 | 0 | 0 | 0 | 0 | STD5.60 |
| 2026-02-15 18:56:58 | 20 | 16.70 | 0.100000 | 41.649648 | 41.62752893 | 0 | 0 | 0 | 0 | 0 | 0 | 0 | 0 | STD5.60 |
| 2026-02-15 18:51:57 | 17 | 15.90 | 0.085000 | 41.649648 | 41.62752893 | 0 | 0 | 0 | 0 | 0 | 0 | 0 | 0 | STD5.60 |
| 2026-02-15 18:46:54 | 18 | 17.30 | 0.090000 | 41.649648 | 41.62752893 | 0 | 0 | 0 | 0 | 0 | 0 | 0 | 0 | STD5.60 |
| 2026-02-15 18:41:53 | 22 | 19.50 | 0.110000 | 41.649648 | 41.62752893 | 0 | 0 | 0 | 0 | 0 | 0 | 0 | 0 | STD5.60 |
| 2026-02-15 18:36:50 | 16 | 19.30 | 0.080000 | 41.649648 | 41.62752893 | 0 | 0 | 0 | 0 | 0 | 0 | 0 | 0 | STD5.60 |
| 2026-02-15 18:31:49 | 19 | 18.60 | 0.095000 | 41.649648 | 41.62752893 | 0 | 0 | 0 | 0 | 0 | 0 | 0 | 0 | STD5.60 |
| 2026-02-15 18:26:47 | 16 | 19.10 | 0.080000 | 41.649648 | 41.62752893 | 0 | 0 | 0 | 0 | 0 | 0 | 0 | 0 | STD5.60 |
| 2026-02-15 18:21:44 | 21 | 15.60 | 0.105000 | 41.649648 | 41.62752893 | 0 | 0 | 0 | 0 | 0 | 0 | 0 | 0 | STD5.60 |
| 2026-02-15 18:16:42 | 7 | 14.40 | 0.035000 | 41.649648 | 41.62752893 | 0 | 0 | 0 | 0 | 0 | 0 | 0 | 0 | STD5.60 |
| 2026-02-15 18:11:40 | 15 | 20.10 | 0.075000 | 41.649648 | 41.62752893 | 0 | 0 | 0 | 0 | 0 | 0 | 0 | 0 | STD5.60 |
| 2026-02-15 18:06:39 | 20 | 21.60 | 0.100000 | 41.649648 | 41.62752893 | 0 | 0 | 0 | 0 | 0 | 0 | 0 | 0 | STD5.60 |
| 2026-02-15 18:01:37 | 12 | 18.80 | 0.060000 | 41.649648 | 41.62752893 | 0 | 0 | 0 | 0 | 0 | 0 | 0 | 0 | STD5.60 |